[TLELIST] Archives

 

[list_settings.list_name] Current TLEs

January 6th 2011 PST

HST 1 20580U 90037B 11004.24385423 .00000555 00000-0 29520-4 0 6962 2 20580 028.4705 007.1641 0003638 177.7199 182.3474 15.01131757934997 ISS (ZARYA) 1 25544U 98067A 11005.34762931 .00017502 00000-0 13236-3 0 5834 2 25544 051.6477 275.6896 0005299 108.0210 353.5559 15.72518785695275 CXO 1 25867U 99040B 11005.00000000 -.00000719 00000-0 00000+0 0 5563 2 25867 068.2527 042.3438 8452618 275.8592 354.2868 00.37804762 7152 ____________________________________________________________________ These 2-Line ...Continue Reading

[list_settings.list_name] Current TLEs

January 5th 2011 PST

HST 1 20580U 90037B 11004.24385423 .00000555 00000-0 29520-4 0 6962 2 20580 028.4705 007.1641 0003638 177.7199 182.3474 15.01131757934997 ISS (ZARYA) 1 25544U 98067A 11004.32985344 .00018919 00000-0 14287-3 0 5779 2 25544 051.6477 280.9036 0005312 103.9040 352.1763 15.72487300695114 CXO 1 25867U 99040B 11005.00000000 -.00000719 00000-0 00000+0 0 5563 2 25867 068.2527 042.3438 8452618 275.8592 354.2868 00.37804762 7152 ____________________________________________________________________ These 2-Line ...Continue Reading

[list_settings.list_name] Current TLEs

January 4th 2011 PST

HST 1 20580U 90037B 11002.18280205 .00000505 00000-0 25669-4 0 6959 2 20580 028.4705 020.6217 0003625 157.8118 202.2671 15.01129759934688 ISS (ZARYA) 1 25544U 98067A 11003.37751434 .00019590 00000-0 14797-3 0 5721 2 25544 051.6473 285.7816 0005361 101.6641 359.7133 15.72453120694964 CXO 1 25867U 99040B 11002.37500000 -.00000846 00000-0 00000+0 0 5555 2 25867 068.2387 042.4864 8449928 275.8345 356.9834 00.37808048 7148 ____________________________________________________________________ These 2-Line ...Continue Reading

[list_settings.list_name] Current TLEs

January 3rd 2011 PST

HST 1 20580U 90037B 11002.18280205 .00000505 00000-0 25669-4 0 6959 2 20580 028.4705 020.6217 0003625 157.8118 202.2671 15.01129759934688 ISS (ZARYA) 1 25544U 98067A 11002.42518063 .00018525 00000-0 14043-3 0 5670 2 25544 051.6472 290.6602 0005451 098.6972 008.1103 15.72411072694819 CXO 1 25867U 99040B 11002.37500000 -.00000846 00000-0 00000+0 0 5555 2 25867 068.2387 042.4864 8449928 275.8345 356.9834 00.37808048 7148 ____________________________________________________________________ These 2-Line ...Continue Reading

[list_settings.list_name] Current TLEs

January 2nd 2011 PST

HST 1 20580U 90037B 10365.25471823 .00000485 00000-0 24152-4 0 6948 2 20580 028.4706 033.2098 0003588 137.2195 222.8694 15.01128297934398 ISS (ZARYA) 1 25544U 98067A 11001.40720221 .00017759 00000-0 13507-3 0 5614 2 25544 051.6469 295.8740 0005418 093.8311 006.7096 15.72369055694652 CXO 1 25867U 99040B 10364.70833333 -.00000762 00000-0 00000+0 0 5546 2 25867 068.2222 042.6615 8444680 275.7978 353.9911 00.37809846 7132 ____________________________________________________________________ These 2-Line ...Continue Reading

[list_settings.list_name] Current TLEs

January 1st 2011 PST

HST 1 20580U 90037B 10365.25471823 .00000485 00000-0 24152-4 0 6948 2 20580 028.4706 033.2098 0003588 137.2195 222.8694 15.01128297934398 ISS (ZARYA) 1 25544U 98067A 10365.38942366 .00016337 00000-0 12486-3 0 5569 2 25544 051.6468 301.0882 0005342 090.1292 005.4297 15.72327763694493 CXO 1 25867U 99040B 10364.70833333 -.00000762 00000-0 00000+0 0 5546 2 25867 068.2222 042.6615 8444680 275.7978 353.9911 00.37809846 7132 ____________________________________________________________________ These 2-Line ...Continue Reading

[list_settings.list_name] Current TLEs

December 31st 2010 PST

HST 1 20580U 90037B 10363.52608847 .00000490 00000-0 24543-4 0 6933 2 20580 028.4703 044.4992 0003444 119.8902 240.1995 15.01127167934139 ISS (ZARYA) 1 25544U 98067A 10364.38139091 .00014363 00000-0 11053-3 0 5501 2 25544 051.6480 306.2483 0005439 086.8934 059.0326 15.72287828694331 CXO 1 25867U 99040B 10364.70833333 -.00000762 00000-0 00000+0 0 5546 2 25867 068.2222 042.6615 8444680 275.7978 353.9911 00.37809846 7132 ____________________________________________________________________ These 2-Line ...Continue Reading

[list_settings.list_name] Current TLEs

December 30th 2010 PST

HST 1 20580U 90037B 10360.60071232 .00000520 00000-0 26878-4 0 6927 2 20580 028.4703 063.5953 0003444 088.7869 271.3120 15.01125494933691 ISS (ZARYA) 1 25544U 98067A 10363.03687507 .00012031 00000-0 93548-4 0 5467 2 25544 051.6473 313.1342 0005289 082.6479 007.9631 15.72239880694128 CXO 1 25867U 99040B 10362.08333333 -.00000482 00000-0 00000+0 0 5538 2 25867 068.2040 042.7979 8437804 275.7955 356.6465 00.37807257 7126 ____________________________________________________________________ These 2-Line ...Continue Reading

[list_settings.list_name] Current TLEs

December 29th 2010 PST

HST 1 20580U 90037B 10360.60071232 .00000520 00000-0 26878-4 0 6927 2 20580 028.4703 063.5953 0003444 088.7869 271.3120 15.01125494933691 ISS (ZARYA) 1 25544U 98067A 10362.34579394 .00011736 00000-0 91435-4 0 5413 2 25544 051.6479 316.6737 0005351 079.9159 056.5182 15.72221316694018 CXO 1 25867U 99040B 10362.08333333 -.00000482 00000-0 00000+0 0 5538 2 25867 068.2040 042.7979 8437804 275.7955 356.6465 00.37807257 7126 ____________________________________________________________________ These 2-Line ...Continue Reading

[list_settings.list_name] Current TLEs

December 28th 2010 PST

HST 1 20580U 90037B 10360.60071232 .00000520 00000-0 26878-4 0 6927 2 20580 028.4703 063.5953 0003444 088.7869 271.3120 15.01125494933691 ISS (ZARYA) 1 25544U 98067A 10361.39272529 .00010922 00000-0 85517-4 0 5349 2 25544 051.6481 321.5543 0005335 077.0299 061.4417 15.72194651693866 CXO 1 25867U 99040B 10362.08333333 -.00000482 00000-0 00000+0 0 5538 2 25867 068.2040 042.7979 8437804 275.7955 356.6465 00.37807257 7126 ____________________________________________________________________ These 2-Line ...Continue Reading
  • This mailing list is a public mailing list - anyone may join or leave, at any time.
  • This mailing list is announce-only.

International Space Station (ISS) / Hubble Space Telescope (HST) / Chandra X-Ray Observatory Orbital Data via EMAIL

Privacy Policy:

Private list